| time (UTC) | temp F | wind direction | speed knots | gust knots | rain 1hr in | rain 24hr in | rain mn in | humidity % | barometer mb |
| 20260905201349 | 93 | 139 | 1.7 | 5.2 | 0.00 | 0.00 | 0.00 | 54 | 1011.8 |
| 20260905200350 | 95 | 130 | 2.6 | 3.5 | 0.00 | 0.00 | 0.00 | 51 | 1011.9 |
| 20260905195334 | 95 | 122 | 0.9 | 1.7 | 0.00 | 0.00 | 0.00 | 52 | 1012.1 |
| 20260905194324 | 95 | 116 | 0.9 | 3.5 | 0.00 | 0.00 | 0.00 | 53 | 1012.2 |
| 20260905193328 | 93 | 300 | 0.9 | 2.6 | 0.00 | 0.00 | 0.00 | 57 | 1012.4 |
| 20260905192335 | 93 | 352 | 0.9 | 3.5 | 0.00 | 0.00 | 0.00 | 56 | 1012.5 |
| 20260905191340 | 93 | 333 | 0.9 | 2.6 | 0.00 | 0.00 | 0.00 | 55 | 1012.6 |
| 20260905190325 | 94 | 64 | 0.0 | 3.5 | 0.00 | 0.00 | 0.00 | 56 | 1012.7 |
| 20260905185329 | 92 | 195 | 0.9 | 4.3 | 0.00 | 0.00 | 0.00 | 58 | 1012.8 |
| 20260905184335 | 92 | 230 | 0.9 | 1.7 | 0.00 | 0.00 | 0.00 | 58 | 1013.0 |
| 20260905183336 | 93 | 80 | 0.0 | 1.7 | 0.00 | 0.00 | 0.00 | 58 | 1013.2 |
| 20260905182326 | 94 | 314 | 0.9 | 3.5 | 0.00 | 0.00 | 0.00 | 56 | 1013.3 |
| 20260905181354 | 94 | 321 | 0.9 | 7.0 | 0.00 | 0.00 | 0.00 | 57 | 1013.5 |
| 20260905180336 | 92 | 316 | 0.9 | 5.2 | 0.00 | 0.00 | 0.00 | 60 | 1013.7 |
| 20260905175341 | 92 | 281 | 0.9 | 3.5 | 0.00 | 0.00 | 0.00 | 56 | 1014.0 |
| 20260905174325 | 92 | 360 | 0.0 | 1.7 | 0.00 | 0.00 | 0.00 | 60 | 1014.2 |
| 20260905173330 | 90 | 327 | 1.7 | 3.5 | 0.00 | 0.00 | 0.00 | 62 | 1014.3 |
| 20260905172336 | 91 | 258 | 0.9 | 2.6 | 0.00 | 0.00 | 0.00 | 63 | 1014.3 |
| 20260905171326 | 93 | 107 | 0.0 | 2.6 | 0.00 | 0.00 | 0.00 | 58 | 1014.4 |
| 20260905170350 | 92 | 149 | 1.7 | 2.6 | 0.00 | 0.00 | 0.00 | 59 | 1014.5 |
| 20260905165334 | 91 | 131 | 1.7 | 3.5 | 0.00 | 0.00 | 0.00 | 60 | 1014.6 |
| 20260905164337 | 91 | 130 | 0.9 | 5.2 | 0.00 | 0.00 | 0.00 | 61 | 1014.7 |
| 20260905163339 | 90 | 120 | 0.0 | 1.7 | 0.00 | 0.00 | 0.00 | 65 | 1014.7 |
| 20260905162325 | 88 | 154 | 0.0 | 1.7 | 0.00 | 0.00 | 0.00 | 70 | 1014.7 |
| 20260905161330 | 89 | 108 | 0.9 | 2.6 | 0.00 | 0.00 | 0.00 | 68 | 1014.8 |
| 20260905160331 | 88 | 120 | 0.9 | 2.6 | 0.00 | 0.00 | 0.00 | 71 | 1014.8 |
| 20260905155334 | 87 | 137 | 0.9 | 2.6 | 0.00 | 0.00 | 0.00 | 74 | 1014.6 |
| 20260905154342 | 86 | 122 | 0.9 | 2.6 | 0.00 | 0.00 | 0.00 | 77 | 1014.6 |
| 20260905153325 | 86 | 137 | 0.0 | 0.0 | 0.00 | 0.00 | 0.00 | 80 | 1014.7 |
| 20260905152330 | 85 | 137 | 0.0 | 1.7 | 0.00 | 0.00 | 0.00 | 81 | 1014.7 |
| 20260905151334 | 85 | 215 | 0.0 | 2.6 | 0.00 | 0.00 | 0.00 | 83 | 1014.7 |
| 20260905150337 | 85 | 341 | 0.0 | 2.6 | 0.00 | 0.00 | 0.00 | 84 | 1014.7 |
| 20260905145343 | 84 | 158 | 0.0 | 0.0 | 0.00 | 0.00 | 0.00 | 85 | 1014.7 |
| 20260905144328 | 84 | 309 | 0.0 | 0.0 | 0.00 | 0.00 | 0.00 | 87 | 1014.6 |
| 20260905143337 | 83 | 177 | 0.0 | 0.0 | 0.00 | 0.00 | 0.00 | 87 | 1014.7 |
| 20260905142343 | 82 | 360 | 0.0 | 0.0 | 0.00 | 0.00 | 0.00 | 89 | 1014.7 |
| 20260905141327 | 81 | 360 | 0.0 | 0.0 | 0.00 | 0.00 | 0.00 | 91 | 1014.7 |
| 20260905140351 | 80 | 10 | 0.0 | 0.0 | 0.00 | 0.00 | 0.00 | 93 | 1014.6 |
| 20260905135336 | 79 | 10 | 0.0 | 0.0 | 0.00 | 0.00 | 0.00 | 94 | 1014.6 |
| 20260905134341 | 78 | 59 | 0.0 | 0.0 | 0.00 | 0.00 | 0.00 | 95 | 1014.6 |
| 20260905133324 | 78 | 64 | 0.0 | 0.0 | 0.00 | 0.00 | 0.00 | 95 | 1014.5 |
| 20260905132349 | 77 | 21 | 0.0 | 0.0 | 0.00 | 0.00 | 0.00 | 95 | 1014.6 |
| 20260905131337 | 77 | 18 | 0.0 | 0.0 | 0.00 | 0.00 | 0.00 | 95 | 1014.5 |
| 20260905130340 | 76 | 18 | 0.0 | 0.0 | 0.00 | 0.00 | 0.00 | 95 | 1014.3 |
| 20260905125346 | 75 | 28 | 0.0 | 0.0 | 0.00 | 0.00 | 0.00 | 94 | 1014.2 |
| 20260905124329 | 75 | 140 | 0.0 | 0.0 | 0.00 | 0.00 | 0.00 | 94 | 1014.1 |
| 20260905123331 | 75 | 139 | 0.0 | 0.0 | 0.00 | 0.01 | 0.00 | 94 | 1013.9 |
| 20260905122337 | 75 | 139 | 0.0 | 0.0 | 0.00 | 0.01 | 0.00 | 94 | 1013.9 |
| 20260905121324 | 75 | 140 | 0.0 | 0.0 | 0.00 | 0.01 | 0.00 | 94 | 1013.8 |
| 20260905120325 | 75 | 139 | 0.0 | 0.0 | 0.00 | 0.01 | 0.00 | 94 | 1013.7 |
| 20260905115336 | 75 | 139 | 0.0 | 0.0 | 0.00 | 0.01 | 0.00 | 94 | 1013.5 |
| 20260905114340 | 75 | 139 | 0.0 | 0.0 | 0.00 | 0.01 | 0.00 | 93 | 1013.5 |
| 20260905113343 | 75 | 139 | 0.0 | 0.0 | 0.00 | 0.01 | 0.00 | 93 | 1013.5 |
| 20260905112327 | 75 | 139 | 0.0 | 0.0 | 0.00 | 0.01 | 0.00 | 94 | 1013.4 |
| 20260905111333 | 75 | 139 | 0.0 | 0.0 | 0.00 | 0.01 | 0.00 | 94 | 1013.3 |
| 20260905110334 | 75 | 139 | 0.0 | 0.0 | 0.00 | 0.01 | 0.00 | 93 | 1013.1 |
| 20260905105340 | 75 | 139 | 0.0 | 0.0 | 0.00 | 0.01 | 0.00 | 93 | 1013.1 |
| 20260905104330 | 75 | 139 | 0.0 | 0.0 | 0.00 | 0.01 | 0.00 | 93 | 1013.2 |
| 20260905103330 | 75 | 139 | 0.0 | 0.0 | 0.00 | 0.01 | 0.00 | 93 | 1013.2 |
| 20260905102336 | 75 | 139 | 0.0 | 0.0 | 0.00 | 0.01 | 0.00 | 93 | 1013.0 |
| 20260905101342 | 75 | 139 | 0.0 | 0.0 | 0.00 | 0.01 | 0.00 | 93 | 1012.9 |
| 20260905100325 | 75 | 139 | 0.0 | 0.0 | 0.00 | 0.01 | 0.00 | 93 | 1012.8 |
| 20260905095331 | 75 | 139 | 0.0 | 0.0 | 0.00 | 0.01 | 0.00 | 93 | 1012.9 |
| 20260905094337 | 75 | 139 | 0.0 | 0.0 | 0.00 | 0.01 | 0.00 | 93 | 1012.8 |
| 20260905093339 | 76 | 139 | 0.0 | 0.0 | 0.00 | 0.01 | 0.00 | 93 | 1012.9 |
| 20260905092328 | 76 | 139 | 0.0 | 0.0 | 0.00 | 0.01 | 0.00 | 93 | 1013.0 |
| 20260905091353 | 76 | 139 | 0.0 | 0.0 | 0.00 | 0.01 | 0.00 | 93 | 1013.1 |
| 20260905090354 | 76 | 139 | 0.0 | 0.0 | 0.00 | 0.01 | 0.00 | 91 | 1013.0 |
| 20260905085359 | 76 | 139 | 0.0 | 0.0 | 0.00 | 0.01 | 0.00 | 93 | 1013.0 |
| 20260905084343 | 76 | 139 | 0.0 | 0.0 | 0.00 | 0.01 | 0.00 | 93 | 1013.0 |
| 20260905083349 | 76 | 139 | 0.0 | 0.0 | 0.00 | 0.01 | 0.00 | 92 | 1012.9 |
| 20260905082353 | 76 | 139 | 0.0 | 0.0 | 0.00 | 0.01 | 0.00 | 92 | 1012.9 |
| 20260905081358 | 76 | 139 | 0.0 | 0.0 | 0.00 | 0.01 | 0.00 | 92 | 1013.0 |
| 20260905080340 | 77 | 139 | 0.0 | 0.0 | 0.00 | 0.01 | 0.00 | 92 | 1013.1 |
| 20260905075326 | 76 | 139 | 0.0 | 0.0 | 0.00 | 0.01 | 0.00 | 92 | 1013.0 |
| 20260905074336 | 76 | 139 | 0.0 | 0.0 | 0.00 | 0.01 | 0.00 | 91 | 1013.0 |
| 20260905073339 | 77 | 139 | 0.0 | 0.0 | 0.00 | 0.01 | 0.00 | 91 | 1013.1 |
| 20260905072324 | 78 | 139 | 0.0 | 0.0 | 0.00 | 0.01 | 0.00 | 91 | 1013.3 |
| 20260905071329 | 78 | 139 | 0.0 | 0.0 | 0.00 | 0.01 | 0.00 | 89 | 1013.4 |
| 20260905070332 | 78 | 139 | 0.0 | 0.0 | 0.00 | 0.01 | 0.00 | 90 | 1013.4 |
| 20260905065337 | 78 | 139 | 0.0 | 0.0 | 0.00 | 0.01 | 0.00 | 90 | 1013.4 |
| 20260905064404 | 78 | 139 | 0.0 | 0.0 | 0.00 | 0.01 | 0.00 | 90 | 1013.5 |
| 20260905063404 | 79 | 139 | 0.0 | 0.9 | 0.00 | 0.01 | 0.00 | 89 | 1013.5 |
| 20260905062332 | 79 | 127 | 0.0 | 1.7 | 0.00 | 0.01 | 0.00 | 89 | 1013.7 |
| 20260905061337 | 79 | 168 | 0.0 | 0.0 | 0.00 | 0.01 | 0.00 | 89 | 1013.7 |
| 20260905060341 | 79 | 168 | 0.0 | 0.0 | 0.00 | 0.01 | 0.00 | 88 | 1013.8 |
| 20260905055326 | 79 | 168 | 0.0 | 0.0 | 0.00 | 0.01 | 0.00 | 88 | 1013.7 |
| 20260905054353 | 80 | 168 | 0.0 | 0.0 | 0.00 | 0.01 | 0.00 | 88 | 1013.7 |
| 20260905053336 | 80 | 168 | 0.0 | 0.9 | 0.00 | 0.01 | 0.00 | 87 | 1013.6 |
| 20260905052340 | 80 | 168 | 0.0 | 0.9 | 0.00 | 0.01 | 0.00 | 87 | 1013.5 |
| 20260905051326 | 80 | 171 | 0.0 | 0.9 | 0.00 | 0.01 | 0.00 | 87 | 1013.5 |
| 20260905050350 | 80 | 171 | 0.0 | 1.7 | 0.00 | 0.01 | 0.00 | 87 | 1013.6 |
| 20260905045336 | 80 | 171 | 0.0 | 0.9 | 0.00 | 0.01 | 0.01 | 86 | 1013.7 |
| 20260905044341 | 80 | 171 | 0.0 | 0.9 | 0.00 | 0.01 | 0.01 | 85 | 1013.8 |
| 20260905043343 | 80 | 171 | 0.0 | 0.9 | 0.00 | 0.01 | 0.01 | 85 | 1013.9 |
| 20260905042329 | 80 | 168 | 0.0 | 0.9 | 0.00 | 0.01 | 0.01 | 85 | 1013.9 |
| 20260905041355 | 81 | 137 | 0.0 | 0.9 | 0.00 | 0.01 | 0.01 | 84 | 1014.0 |
| 20260905040339 | 81 | 137 | 0.0 | 1.7 | 0.00 | 0.01 | 0.01 | 83 | 1014.0 |
| 20260905035325 | 81 | 126 | 1.7 | 3.5 | 0.00 | 0.01 | 0.01 | 83 | 1014.0 |
| 20260905034333 | 82 | 124 | 1.7 | 2.6 | 0.00 | 0.01 | 0.01 | 82 | 1014.0 |
| 20260905033334 | 82 | 132 | 1.7 | 1.7 | 0.00 | 0.01 | 0.01 | 82 | 1014.1 |
| 20260905032340 | 82 | 135 | 1.7 | 3.5 | 0.00 | 0.01 | 0.01 | 81 | 1014.0 |
| 20260905031325 | 82 | 124 | 1.7 | 2.6 | 0.00 | 0.01 | 0.01 | 81 | 1014.0 |
| 20260905030329 | 82 | 128 | 0.9 | 2.6 | 0.00 | 0.01 | 0.01 | 80 | 1013.9 |
| 20260905025334 | 83 | 125 | 1.7 | 2.6 | 0.00 | 0.01 | 0.01 | 79 | 1013.9 |
| 20260905024340 | 83 | 128 | 1.7 | 2.6 | 0.00 | 0.01 | 0.01 | 79 | 1013.9 |
| 20260905023343 | 83 | 131 | 1.7 | 3.5 | 0.00 | 0.01 | 0.01 | 78 | 1013.7 |
| 20260905022332 | 84 | 128 | 1.7 | 2.6 | 0.00 | 0.01 | 0.01 | 77 | 1013.4 |
| 20260905021339 | 84 | 133 | 1.7 | 3.5 | 0.00 | 0.01 | 0.01 | 77 | 1013.3 |
| 20260905020342 | 84 | 137 | 0.9 | 1.7 | 0.00 | 0.01 | 0.01 | 77 | 1013.2 |
| 20260905015326 | 84 | 137 | 0.9 | 1.7 | 0.00 | 0.01 | 0.01 | 76 | 1013.1 |
| 20260905014331 | 84 | 137 | 1.7 | 3.5 | 0.00 | 0.01 | 0.01 | 75 | 1013.0 |
| 20260905013354 | 85 | 128 | 1.7 | 4.3 | 0.01 | 0.01 | 0.01 | 75 | 1012.9 |
| 20260905012337 | 85 | 115 | 2.6 | 5.2 | 0.01 | 0.01 | 0.01 | 74 | 1012.7 |
| 20260905011342 | 85 | 143 | 1.7 | 3.5 | 0.01 | 0.01 | 0.01 | 73 | 1012.6 |
| 20260905010329 | 86 | 104 | 0.9 | 2.6 | 0.01 | 0.01 | 0.01 | 72 | 1012.6 |
| 20260905005334 | 86 | 119 | 1.7 | 3.5 | 0.01 | 0.01 | 0.01 | 71 | 1012.5 |
| 20260905004400 | 87 | 143 | 0.9 | 0.9 | 0.01 | 0.01 | 0.01 | 68 | 1012.5 |
| 20260905003342 | 88 | 127 | 0.0 | 0.9 | 0.00 | 0.00 | 0.00 | 68 | 1012.3 |
| 20260905002328 | 88 | 127 | 0.9 | 1.7 | 0.00 | 0.00 | 0.00 | 65 | 1012.3 |
| 20260905001333 | 89 | 122 | 0.9 | 1.7 | 0.00 | 0.00 | 0.00 | 64 | 1012.3 |
| 20260905000356 | 89 | 136 | 0.9 | 3.5 | 0.00 | 0.00 | 0.00 | 62 | 1012.3 |
| 20260904235341 | 90 | 139 | 1.7 | 5.2 | 0.00 | 0.00 | 0.00 | 62 | 1012.1 |
| 20260904234331 | 90 | 124 | 2.6 | 4.3 | 0.00 | 0.00 | 0.00 | 60 | 1012.1 |
| 20260904233334 | 90 | 137 | 1.7 | 5.2 | 0.00 | 0.00 | 0.00 | 64 | 1012.0 |
| 20260904232340 | 90 | 138 | 2.6 | 6.1 | 0.00 | 0.00 | 0.00 | 64 | 1012.0 |
| 20260904231344 | 90 | 133 | 3.5 | 7.0 | 0.00 | 0.00 | 0.00 | 63 | 1011.9 |
| 20260904230346 | 91 | 112 | 0.9 | 3.5 | 0.00 | 0.00 | 0.00 | 63 | 1012.1 |
| 20260904225327 | 91 | 126 | 0.9 | 2.6 | 0.00 | 0.00 | 0.00 | 62 | 1012.1 |
| 20260904224332 | 91 | 39 | 0.0 | 1.7 | 0.00 | 0.00 | 0.00 | 63 | 1012.1 |
| 20260904223334 | 90 | 129 | 0.9 | 1.7 | 0.00 | 0.00 | 0.00 | 63 | 1012.3 |
| 20260904222339 | 90 | 129 | 0.9 | 2.6 | 0.00 | 0.00 | 0.00 | 66 | 1012.5 |
| 20260904221328 | 90 | 126 | 0.9 | 3.5 | 0.00 | 0.00 | 0.00 | 66 | 1012.5 |
| 20260904220352 | 90 | 120 | 1.7 | 5.2 | 0.00 | 0.00 | 0.00 | 67 | 1012.5 |
| 20260904215335 | 89 | 147 | 0.0 | 1.7 | 0.00 | 0.00 | 0.00 | 68 | 1012.6 |
| 20260904214342 | 90 | 129 | 1.7 | 2.6 | 0.00 | 0.00 | 0.00 | 68 | 1012.6 |
| 20260904213326 | 90 | 360 | 0.0 | 4.3 | 0.00 | 0.00 | 0.00 | 69 | 1012.7 |
| 20260904212351 | 90 | 137 | 0.9 | 1.7 | 0.00 | 0.00 | 0.00 | 68 | 1012.8 |
| 20260904211333 | 90 | 34 | 0.0 | 1.7 | 0.00 | 0.00 | 0.00 | 68 | 1012.8 |
| 20260904210337 | 89 | 83 | 0.9 | 3.5 | 0.00 | 0.00 | 0.00 | 69 | 1013.0 |
| 20260904205327 | 89 | 322 | 0.0 | 1.7 | 0.00 | 0.00 | 0.00 | 70 | 1013.1 |
| 20260904204333 | 88 | 111 | 0.0 | 1.7 | 0.00 | 0.00 | 0.00 | 71 | 1013.3 |
| 20260904203333 | 88 | 86 | 0.0 | 2.6 | 0.00 | 0.00 | 0.00 | 72 | 1013.4 |
| 20260904202339 | 87 | 360 | 0.0 | 0.0 | 0.00 | 0.00 | 0.00 | 73 | 1013.4 |